When you browse on this site, cookies collect data to enhance your experience and personalize the content and advertising you see.
Visit our Privacy Policy to learn more. By continuing to use the site, you agree to this use of cookies and data.
  • In Hungary
  • List of Countries
  • For 7 days
  • Water Temperature
  • Satellite Maps
  • Weather Map
  • News
  • Weather Widgets
  • user-avatar
    Login

    Hourly Weather Gajewo

    Today, 18 January, Friday

    Time Temperature Precipitation Wind Pressure Humidity
    00:00 +1°C° 0.5 mm 5 mps 745 mmHg 84%
    01:00 +1°C° 0 mm 6 mps 745 mmHg 81%
    02:00 +1°C° 0.7 mm 5 mps 746 mmHg 82%
    03:00 0°C° 0.7 mm 5 mps 747 mmHg 83%
    04:00 0°C° 0.7 mm 5 mps 748 mmHg 84%
    05:00 0°C° 0.3 mm 5 mps 748 mmHg 83%
    06:00 -1°C° 0.3 mm 5 mps 749 mmHg 82%
    07:00 -1°C° 0 mm 5 mps 751 mmHg 80%
    08:00 -1°C° 0.1 mm 5 mps 752 mmHg 78%
    09:00 -2°C° 0.1 mm 5 mps 753 mmHg 76%
    10:00 -2°C° 0.1 mm 5 mps 754 mmHg 74%
    11:00 -2°C° 0 mm 5 mps 755 mmHg 72%
    12:00 -1°C° 0 mm 5 mps 755 mmHg 71%
    13:00 -1°C° 0 mm 5 mps 756 mmHg 70%
    14:00 -1°C° 0 mm 4 mps 757 mmHg 73%
    15:00 -2°C° 0 mm 4 mps 757 mmHg 75%
    16:00 -1°C° 0 mm 3 mps 757 mmHg 78%
    17:00 -2°C° 0 mm 3 mps 757 mmHg 81%
    18:00 -2°C° 0 mm 3 mps 758 mmHg 84%
    19:00 -4°C° 0 mm 3 mps 758 mmHg 86%
    20:00 -2°C° 0 mm 3 mps 758 mmHg 86%
    21:00 -2°C° 0 mm 3 mps 758 mmHg 85%
    22:00 -2°C° 0 mm 3 mps 759 mmHg 85%
    23:00 -2°C° 0 mm 3 mps 759 mmHg 88%

    Tomorrow, 19 January, Saturday

    Time Temperature Precipitation Wind Pressure Humidity
    00:00 -2°C° 0 mm 3 mps 759 mmHg 90%
    01:00 -4°C° 0 mm 3 mps 759 mmHg 93%
    02:00 -3°C° 0 mm 2 mps 759 mmHg 93%
    03:00 -3°C° 0 mm 2 mps 760 mmHg 94%
    04:00 -3°C° 0 mm 2 mps 760 mmHg 94%
    05:00 -3°C° 0 mm 2 mps 760 mmHg 93%
    06:00 -3°C° 0 mm 2 mps 760 mmHg 92%
    07:00 -3°C° 0 mm 2 mps 760 mmHg 91%
    08:00 -3°C° 0 mm 2 mps 760 mmHg 89%
    09:00 -2°C° 0 mm 2 mps 761 mmHg 86%
    10:00 -2°C° 0 mm 2 mps 761 mmHg 84%
    11:00 -1°C° 0 mm 2 mps 761 mmHg 81%
    12:00 +1°C° 0 mm 2 mps 761 mmHg 78%
    13:00 +3°C° 0 mm 1 mps 760 mmHg 74%
    14:00 +2°C° 0 mm 1 mps 760 mmHg 77%
    15:00 +2°C° 0 mm 1 mps 760 mmHg 80%
    16:00 +1°C° 0 mm 1 mps 760 mmHg 83%
    17:00 +1°C° 0 mm 1 mps 760 mmHg 84%
    18:00 0°C° 0 mm 1 mps 760 mmHg 85%
    19:00 0°C° 0 mm 1 mps 760 mmHg 85%
    20:00 0°C° 0 mm 1 mps 760 mmHg 85%
    21:00 0°C° 0 mm 1 mps 760 mmHg 85%
    22:00 -1°C° 0 mm 1 mps 760 mmHg 85%
    23:00 -1°C° 0 mm 1 mps 760 mmHg 85%

    Day after tomorrow, 20 January, Sunday

    Time Temperature Precipitation Wind Pressure Humidity
    00:00 -1°C° 0 mm 1 mps 760 mmHg 85%
    01:00 -1°C° 0 mm 1 mps 760 mmHg 85%
    02:00 -1°C° 0 mm 1 mps 759 mmHg 85%
    03:00 -1°C° 0 mm 1 mps 759 mmHg 85%
    04:00 -2°C° 0 mm 0 mps 759 mmHg 85%
    05:00 -2°C° 0 mm 0 mps 759 mmHg 85%
    06:00 -3°C° 0 mm 0 mps 759 mmHg 85%
    07:00 -3°C° 0 mm 0 mps 759 mmHg 85%
    08:00 -2°C° 0 mm 0 mps 759 mmHg 83%
    09:00 -2°C° 0 mm 0 mps 759 mmHg 80%
    10:00 -1°C° 0 mm 0 mps 759 mmHg 77%
    11:00 0°C° 0 mm 0 mps 759 mmHg 74%
    12:00 +1°C° 0 mm 1 mps 759 mmHg 71%
    13:00 +2°C° 0 mm 1 mps 759 mmHg 68%
    14:00 +1°C° 0 mm 1 mps 759 mmHg 72%
    15:00 +1°C° 0 mm 1 mps 759 mmHg 76%
    16:00 0°C° 0 mm 1 mps 759 mmHg 80%
    17:00 0°C° 0 mm 1 mps 759 mmHg 83%
    18:00 -1°C° 0 mm 1 mps 760 mmHg 85%
    19:00 -3°C° 0 mm 2 mps 760 mmHg 87%
    20:00 -3°C° 0 mm 2 mps 760 mmHg 89%
    21:00 -3°C° 0 mm 2 mps 761 mmHg 90%
    22:00 -3°C° 0 mm 2 mps 761 mmHg 91%
    23:00 -3°C° 0 mm 2 mps 761 mmHg 92%

    21 January, Monday

    Time Temperature Precipitation Wind Pressure Humidity
    00:00 -3°C° 0 mm 2 mps 762 mmHg 93%
    01:00 -3°C° 0 mm 2 mps 762 mmHg 94%
    02:00 -3°C° 0 mm 2 mps 762 mmHg 94%
    03:00 -3°C° 0 mm 2 mps 762 mmHg 94%
    04:00 -4°C° 0 mm 2 mps 762 mmHg 93%
    05:00 -4°C° 0 mm 2 mps 762 mmHg 93%
    06:00 -4°C° 0 mm 2 mps 762 mmHg 93%
    07:00 -4°C° 0 mm 2 mps 763 mmHg 93%
    08:00 -3°C° 0 mm 2 mps 763 mmHg 90%
    09:00 -3°C° 0 mm 2 mps 763 mmHg 87%
    10:00 -3°C° 0 mm 2 mps 763 mmHg 84%
    11:00 -2°C° 0 mm 3 mps 763 mmHg 80%
    12:00 -1°C° 0 mm 3 mps 763 mmHg 77%
    13:00 -1°C° 0 mm 3 mps 763 mmHg 73%
    14:00 -1°C° 0 mm 3 mps 762 mmHg 75%
    15:00 -1°C° 0 mm 3 mps 762 mmHg 77%
    16:00 -2°C° 0 mm 3 mps 762 mmHg 79%
    17:00 -2°C° 0 mm 3 mps 761 mmHg 79%
    18:00 -2°C° 0 mm 3 mps 761 mmHg 79%
    19:00 -4°C° 0 mm 4 mps 761 mmHg 78%
    20:00 -4°C° 0 mm 4 mps 761 mmHg 76%
    21:00 -4°C° 0 mm 4 mps 760 mmHg 74%
    22:00 -3°C° 0 mm 4 mps 760 mmHg 72%
    23:00 -3°C° 0 mm 4 mps 760 mmHg 70%

    22 January, Tuesday

    Time Temperature Precipitation Wind Pressure Humidity
    00:00 -3°C° 0 mm 4 mps 759 mmHg 69%
    01:00 -3°C° 0 mm 4 mps 759 mmHg 67%
    02:00 -3°C° 0 mm 4 mps 758 mmHg 67%
    03:00 -4°C° 0 mm 4 mps 758 mmHg 66%
    04:00 -4°C° 0 mm 4 mps 757 mmHg 66%
    05:00 -4°C° 0 mm 3 mps 756 mmHg 67%
    06:00 -4°C° 0 mm 3 mps 756 mmHg 68%
    07:00 -5°C° 0 mm 3 mps 755 mmHg 69%
    08:00 -4°C° 0 mm 4 mps 755 mmHg 67%
    09:00 -4°C° 0 mm 4 mps 754 mmHg 65%
    10:00 -3°C° 0 mm 4 mps 753 mmHg 63%
    11:00 -3°C° 0 mm 4 mps 753 mmHg 61%
    12:00 -2°C° 0 mm 5 mps 752 mmHg 59%
    13:00 -2°C° 0 mm 5 mps 751 mmHg 56%
    14:00 -2°C° 0 mm 5 mps 750 mmHg 56%
    15:00 -2°C° 0 mm 5 mps 749 mmHg 57%
    16:00 -2°C° 0 mm 4 mps 748 mmHg 57%
    17:00 -3°C° 0 mm 4 mps 747 mmHg 58%
    18:00 -3°C° 0 mm 4 mps 747 mmHg 59%
    19:00 -3°C° 0 mm 4 mps 746 mmHg 60%
    20:00 -3°C° 0 mm 4 mps 746 mmHg 61%
    21:00 -4°C° 0 mm 4 mps 745 mmHg 62%
    22:00 -4°C° 0 mm 4 mps 745 mmHg 63%
    23:00 -4°C° 0 mm 4 mps 745 mmHg 64%

    23 January, Wednesday

    Time Temperature Precipitation Wind Pressure Humidity
    00:00 -4°C° 0 mm 4 mps 744 mmHg 65%
    01:00 -4°C° 0 mm 4 mps 744 mmHg 66%
    02:00 -4°C° 0 mm 4 mps 743 mmHg 67%
    03:00 -4°C° 0 mm 3 mps 743 mmHg 68%
    04:00 -4°C° 0 mm 3 mps 743 mmHg 69%
    05:00 -4°C° 0 mm 3 mps 743 mmHg 70%
    06:00 -4°C° 0 mm 3 mps 742 mmHg 71%
    07:00 -4°C° 0 mm 3 mps 742 mmHg 72%
    08:00 -4°C° 0 mm 3 mps 742 mmHg 72%
    09:00 -4°C° 0 mm 3 mps 742 mmHg 71%
    10:00 -2°C° 0 mm 3 mps 742 mmHg 71%
    11:00 -2°C° 0 mm 3 mps 741 mmHg 70%
    12:00 -2°C° 0 mm 3 mps 741 mmHg 69%
    13:00 -1°C° 0 mm 3 mps 741 mmHg 68%
    14:00 -2°C° 0 mm 3 mps 741 mmHg 70%
    15:00 -2°C° 0 mm 3 mps 740 mmHg 72%
    16:00 -2°C° 0 mm 2 mps 740 mmHg 74%
    17:00 -2°C° 0 mm 2 mps 740 mmHg 76%
    18:00 -3°C° 0 mm 2 mps 740 mmHg 77%
    19:00 -3°C° 0 mm 2 mps 740 mmHg 79%
    20:00 -4°C° 0 mm 3 mps 740 mmHg 81%
    21:00 -4°C° 0 mm 3 mps 740 mmHg 83%
    22:00 -4°C° 0 mm 3 mps 740 mmHg 85%
    23:00 -4°C° 0.3 mm 3 mps 740 mmHg 87%
    Show more